Rogers City, MI

1:26 AM EST on February 23, 2017 (GMT -0500)
Presque Isle County

Weather History for KPZQ - November, 2013

Change the Weather History Date:

Tuesday, November 12, 2013

  Actual Average (KAPN) Record (KAPN)
Temperature  
Mean Temperature 26 °F -  
Max Temperature 30 °F 40 °F 64 °F (1927)
Min Temperature 22 °F 27 °F 7 °F (1920)
Degree Days  
Heating Degree Days 39    
Moisture  
Dew Point 18 °F    
Average Humidity 68    
Maximum Humidity 86    
Minimum Humidity 55    
Precipitation  
Precipitation 0.00 in - - ()
Sea Level Pressure  
Sea Level Pressure 30.43 in    
Wind  
Wind Speed 14 mph (WNW)    
Max Wind Speed 21 mph    
Max Gust Speed 32 mph    
Visibility 9 miles    
Events Snow    
Averages and records for this station are not official NWS values.
T = Trace of Precipitation, MM = Missing Value Source: NWS Daily Summary

Daily Weather History Graph

Daily Weather History Graph

Search for Another Location

Airport or City:

Trip Planner

Search our weather history database for the weather conditions in past years. The results will help you decide how hot, cold, wet, or windy it might be!

Date:

Astronomy

Nov. 12, 2013 Rise Set
Actual Time 7:30 AM EST 5:08 PM EST
Civil Twilight 6:58 AM EST 5:39 PM EST
Nautical Twilight 6:22 AM EST 6:15 PM EST
Astronomical Twilight 5:47 AM EST 6:50 PM EST
Moon 2:34 PM EST (11/12) 2:04 AM EST (11/12)
Length of Visible Light 10h 41m
Length of Day
9h 37m
Waxing Gibbous, 76% of the Moon is Illuminated
Nov 12
Waxing Gibbous
Nov 17
Full
Nov 25
Last Quarter
Dec 2
New
Dec 9
First Quarter

Hourly Weather History & Observations

Time (EST) Temp. Windchill Dew Point Humidity Pressure Visibility Wind Dir Wind Speed Gust Speed Precip Events Conditions
12:14 AM 27.5 °F 14.2 °F 19.6 °F 72% 30.32 in 10.0 mi NW 19.6 mph 28.8 mph N/A   Overcast
12:35 AM 27.0 °F 13.2 °F 19.4 °F 73% 30.33 in 10.0 mi NNW 20.7 mph 27.6 mph N/A   Overcast
12:55 AM 25.9 °F 12.9 °F 17.2 °F 70% 30.34 in 10.0 mi NW 17.3 mph 24.2 mph N/A   Mostly Cloudy
1:14 AM 26.4 °F 13.2 °F 19.4 °F 75% 30.35 in 10.0 mi NNW 18.4 mph 27.6 mph N/A   Mostly Cloudy
1:35 AM 26.6 °F 13.4 °F 20.3 °F 77% 30.35 in 10.0 mi NW 18.4 mph 26.5 mph N/A   Overcast
1:55 AM 27.1 °F 16.4 °F 20.8 °F 77% 30.36 in 10.0 mi NW 12.7 mph 27.6 mph N/A   Overcast
2:14 AM 27.5 °F 15.4 °F 21.0 °F 77% 30.37 in 10.0 mi NW 16.1 mph 26.5 mph N/A   Overcast
2:35 AM 27.5 °F 15.9 °F 21.2 °F 77% 30.37 in 10.0 mi NW 15.0 mph 23.0 mph N/A   Overcast
2:55 AM 27.9 °F 16.8 °F 21.0 °F 75% 30.38 in 10.0 mi NW 13.8 mph 23.0 mph N/A   Overcast
3:15 AM 27.9 °F 17.3 °F 21.2 °F 76% 30.38 in 10.0 mi NW 12.7 mph 24.2 mph N/A   Overcast
3:35 AM 28.2 °F 19.5 °F 21.4 °F 76% 30.39 in 10.0 mi NW 9.2 mph 19.6 mph N/A   Overcast
3:54 AM 28.6 °F 15.6 °F 20.8 °F 73% 30.39 in 10.0 mi NW 19.6 mph 24.2 mph N/A   Overcast
4:15 AM 29.3 °F 19.1 °F 21.6 °F 73% 30.40 in 10.0 mi NNW 12.7 mph 20.7 mph N/A   Overcast
4:35 AM 29.3 °F 17.0 °F 19.8 °F 68% 30.40 in 10.0 mi NW 18.4 mph 29.9 mph N/A   Overcast
4:54 AM 29.7 °F 19.6 °F 20.1 °F 68% 30.40 in 10.0 mi NW 12.7 mph 25.3 mph N/A   Overcast
5:15 AM 29.8 °F 19.3 °F 18.7 °F 63% 30.41 in 10.0 mi NW 13.8 mph 28.8 mph N/A   Overcast
5:35 AM 29.3 °F 20.2 °F 17.6 °F 62% 30.41 in 10.0 mi NW 10.4 mph 25.3 mph N/A   Mostly Cloudy
5:54 AM 29.3 °F 17.7 °F 16.5 °F 59% 30.42 in 10.0 mi NW 16.1 mph 32.2 mph N/A   Overcast
6:15 AM 29.3 °F 17.0 °F 16.7 °F 59% 30.42 in 10.0 mi NW 18.4 mph 26.5 mph N/A   Mostly Cloudy
6:34 AM 29.1 °F 17.1 °F 15.6 °F 57% 30.42 in 10.0 mi NW 17.3 mph 27.6 mph N/A   Overcast
6:55 AM 29.1 °F 17.9 °F 15.8 °F 58% 30.43 in 10.0 mi NW 15.0 mph 24.2 mph N/A   Overcast
7:15 AM 28.9 °F 16.5 °F 16.0 °F 58% 30.44 in 10.0 mi NW 18.4 mph 31.1 mph N/A   Overcast
7:35 AM 29.1 °F 17.5 °F 16.7 °F 60% 30.44 in 10.0 mi NW 16.1 mph 24.2 mph N/A   Overcast
7:55 AM 28.9 °F 19.8 °F 16.5 °F 60% 30.44 in 10.0 mi NW 10.4 mph 24.2 mph N/A   Overcast
8:14 AM 28.9 °F 18.2 °F 15.8 °F 58% 30.45 in 10.0 mi NW 13.8 mph 25.3 mph N/A   Overcast
8:35 AM 29.1 °F 16.4 °F 16.7 °F 60% 30.45 in 10.0 mi NW 19.6 mph 25.3 mph N/A   Overcast
8:55 AM 28.9 °F 18.2 °F 16.0 °F 58% 30.46 in 10.0 mi NW 13.8 mph 25.3 mph N/A   Overcast
9:14 AM 29.1 °F 17.1 °F 16.2 °F 58% 30.46 in 10.0 mi NW 17.3 mph 27.6 mph N/A   Overcast
9:35 AM 29.3 °F 18.6 °F 16.2 °F 58% 30.46 in 10.0 mi NW 13.8 mph 24.2 mph N/A   Overcast
9:55 AM 29.3 °F 16.6 °F 16.5 °F 59% 30.46 in 10.0 mi NW 19.6 mph 25.3 mph N/A   Overcast
10:15 AM 29.3 °F 18.6 °F 18.9 °F 65% 30.47 in 10.0 mi NW 13.8 mph 19.6 mph N/A Snow Light Snow
10:35 AM 29.7 °F 18.2 °F 18.1 °F 62% 30.48 in 10.0 mi NW 16.1 mph 23.0 mph N/A Snow Light Snow
10:54 AM 29.1 °F 17.5 °F 18.3 °F 64% 30.49 in 7.0 mi WNW 16.1 mph 25.3 mph N/A Snow Light Snow
11:15 AM 27.5 °F 20.2 °F 22.1 °F 80% 30.48 in 1.5 mi NW 6.9 mph - N/A Snow Light Snow
11:35 AM 27.5 °F 17.4 °F 23.4 °F 84% 30.49 in 0.5 mi WNW 11.5 mph 19.6 mph N/A Snow Light Snow
11:54 AM 27.1 °F 16.4 °F 23.5 °F 86% 30.49 in 0.5 mi NW 12.7 mph 18.4 mph N/A Snow Snow
12:15 PM 28.2 °F 18.9 °F 23.9 °F 84% 30.48 in 4.0 mi West 10.4 mph - N/A Snow Light Snow
12:35 PM 28.4 °F 17.0 °F 21.7 °F 76% 30.48 in 4.0 mi WNW 15.0 mph 23.0 mph N/A Snow Light Snow
12:55 PM 28.4 °F 17.5 °F 19.4 °F 69% 30.47 in 10.0 mi NW 13.8 mph 19.6 mph N/A Snow Light Snow
1:15 PM 28.6 °F 17.7 °F 17.6 °F 64% 30.47 in 10.0 mi WNW 13.8 mph 24.2 mph N/A   Overcast
1:34 PM 29.3 °F 20.2 °F 16.9 °F 60% 30.47 in 10.0 mi NW 10.4 mph 20.7 mph N/A   Overcast
1:55 PM 29.8 °F 19.8 °F 16.0 °F 56% 30.47 in 10.0 mi NW 12.7 mph 24.2 mph N/A   Overcast
2:14 PM 30.2 °F 18.1 °F 16.2 °F 56% 30.46 in 10.0 mi WNW 18.4 mph 25.3 mph N/A   Overcast
2:35 PM 29.3 °F 19.1 °F 15.8 °F 57% 30.46 in 10.0 mi NW 12.7 mph 23.0 mph N/A   Mostly Cloudy
2:55 PM 29.1 °F 18.4 °F 17.4 °F 62% 30.46 in 10.0 mi NW 13.8 mph 20.7 mph N/A Snow Light Snow
3:15 PM 29.3 °F 19.6 °F 17.4 °F 61% 30.45 in 10.0 mi NW 11.5 mph 20.7 mph N/A   Mostly Cloudy
3:35 PM 30.2 °F 19.8 °F 15.8 °F 55% 30.45 in 10.0 mi WNW 13.8 mph 23.0 mph N/A   Mostly Cloudy
3:54 PM 30.2 °F 20.8 °F 16.0 °F 56% 30.45 in 10.0 mi West 11.5 mph 20.7 mph N/A   Overcast
4:15 PM 29.3 °F 19.6 °F 16.5 °F 59% 30.45 in 10.0 mi West 11.5 mph 17.3 mph N/A   Overcast
4:34 PM 29.1 °F 22.1 °F 15.8 °F 58% 30.45 in 10.0 mi West 6.9 mph - N/A   Overcast
4:55 PM 28.9 °F 18.2 °F 15.6 °F 58% 30.45 in 10.0 mi West 13.8 mph 19.6 mph N/A   Overcast
5:14 PM 28.4 °F 20.4 °F 15.6 °F 59% 30.46 in 10.0 mi West 8.1 mph - N/A   Overcast
5:35 PM 28.4 °F 19.7 °F 14.7 °F 57% 30.46 in 10.0 mi West 9.2 mph 19.6 mph N/A   Overcast
5:55 PM 28.2 °F 18.9 °F 14.7 °F 57% 30.46 in 10.0 mi West 10.4 mph 17.3 mph N/A   Overcast
6:14 PM 27.9 °F 19.8 °F 16.2 °F 62% 30.46 in 10.0 mi West 8.1 mph 16.1 mph N/A   Overcast
6:35 PM 27.5 °F 20.2 °F 19.6 °F 72% 30.46 in 10.0 mi West 6.9 mph 16.1 mph N/A Snow Light Snow
6:55 PM 27.0 °F 20.5 °F 19.8 °F 74% 30.46 in 10.0 mi West 5.8 mph - N/A   Mostly Cloudy
7:14 PM 26.6 °F 20.0 °F 19.4 °F 74% 30.45 in 10.0 mi West 5.8 mph - N/A   Mostly Cloudy
7:35 PM 26.1 °F 20.5 °F 18.9 °F 74% 30.45 in 10.0 mi West 4.6 mph - N/A   Scattered Clouds
7:54 PM 24.3 °F 17.3 °F 18.1 °F 77% 30.45 in 10.0 mi WSW 5.8 mph - N/A   Clear
8:15 PM 24.8 °F 19.1 °F 18.3 °F 76% 30.45 in 10.0 mi West 4.6 mph - N/A   Clear
8:34 PM 23.9 °F 16.8 °F 17.6 °F 77% 30.44 in 10.0 mi WSW 5.8 mph - N/A   Clear
8:55 PM 25.2 °F 17.3 °F 18.0 °F 74% 30.44 in 10.0 mi West 6.9 mph - N/A   Mostly Cloudy
9:14 PM 25.3 °F 17.6 °F 17.4 °F 72% 30.44 in 10.0 mi West 6.9 mph - N/A   Mostly Cloudy
9:35 PM 25.5 °F 18.7 °F 17.2 °F 71% 30.43 in 10.0 mi West 5.8 mph - N/A   Scattered Clouds
9:55 PM 24.3 °F 18.4 °F 16.3 °F 72% 30.43 in 10.0 mi WSW 4.6 mph - N/A   Clear
10:14 PM 23.4 °F 16.2 °F 16.3 °F 75% 30.43 in 10.0 mi SW 5.8 mph - N/A   Clear
10:35 PM 22.8 °F 16.7 °F 16.5 °F 77% 30.43 in 10.0 mi SW 4.6 mph - N/A   Scattered Clouds
10:55 PM 23.0 °F 14.7 °F 17.2 °F 79% 30.43 in 10.0 mi SW 6.9 mph - N/A   Mostly Cloudy
11:14 PM 24.4 °F 16.5 °F 18.1 °F 77% 30.42 in 10.0 mi SSW 6.9 mph - N/A   Overcast
11:35 PM 24.6 °F 17.7 °F 18.5 °F 78% 30.41 in 10.0 mi SSW 5.8 mph - N/A   Mostly Cloudy
11:55 PM 24.1 °F 17.0 °F 18.5 °F 79% 30.42 in 10.0 mi SSW 5.8 mph - N/A   Mostly Cloudy